De Queen, AR

6:17 AM CDT on October 14, 2019 (GMT -0500)
Helms Sevier County

Weather History for KDEQ - August, 2019

Change the Weather History Date:

Friday, August 30, 2019

  Actual Average Record
Temperature  
Mean Temperature 80 °F 80 °F  
Max Temperature 89 °F 93 °F 109 °F (1954)
Min Temperature 71 °F 67 °F 52 °F (1986)
Degree Days  
Heating Degree Days 0 0  
Month to date heating degree days 0 0  
Since 1 June heating degree days 0 0  
Since 1 July heating degree days 0 0  
Cooling Degree Days 15 15  
Month to date cooling degree days 564 489  
Year to date cooling degree days 1701 1581  
Since 1 June cooling degree days 1428 1364  
Growing Degree Days 30 (Base 50)    
Moisture  
Dew Point 72 °F    
Average Humidity 84    
Maximum Humidity 100    
Minimum Humidity 57    
Precipitation  
Precipitation T in 0.09 in 3.12 in (1902)
Month to date precipitation 1.08 2.09  
Year to date precipitation 38.16 31.51  
Snow  
Snow 0.00 in - - ()
Month to date snowfall 0.0  
Since 1 June snowfall 0.0  
Since 1 July snowfall 0.0  
Snow Depth 0.00 in    
Sea Level Pressure  
Sea Level Pressure 30.02 in    
Wind  
Wind Speed 3 mph ()    
Max Wind Speed 16 mph    
Max Gust Speed 26 mph    
Visibility 9.7 miles    
Events Rain , Thunderstorm    
T = Trace of Precipitation, MM = Missing Value Source: Averaged Metar Reports

Daily Weather History Graph

Daily Weather History Graph

Search for Another Location

Airport or City:

Astronomy

Aug. 30, 2019 Rise Set
Actual Time 6:49 AM CDT 7:46 PM CDT
Civil Twilight 6:23 AM CDT 8:11 PM CDT
Nautical Twilight 5:53 AM CDT 8:42 PM CDT
Astronomical Twilight 5:22 AM CDT 9:13 PM CDT
Moon 6:53 AM CDT (8/30) 8:23 PM CDT (8/30)
Length of Visible Light 13h 47m
Length of Day
12h 56m
New Moon, 0% of the Moon is Illuminated
Aug 30
New Moon
Sep 5
First Quarter
Sep 13
Full
Sep 21
Last Quarter
Sep 28
New

Hourly Weather History & Observations

Time (CDT) Temp. Heat Index Dew Point Humidity Pressure Visibility Wind Dir Wind Speed Gust Speed Precip Events Conditions
12:53 AM 79.0 °F - 75.0 °F 88% 29.99 in 10.0 mi East 4.6 mph - N/A   Mostly Cloudy
1:53 AM 78.1 °F - 73.9 °F 87% 29.99 in 10.0 mi East 4.6 mph - N/A   Partly Cloudy
2:53 AM 75.9 °F - 73.9 °F 94% 29.99 in 10.0 mi Calm Calm - N/A   Clear
3:53 AM 75.0 °F - 73.9 °F 96% 30.01 in 9.0 mi Calm Calm - N/A   Mostly Cloudy
4:53 AM 75.0 °F - 73.9 °F 96% 30.01 in 10.0 mi East 3.5 mph - N/A   Scattered Clouds
5:53 AM 73.0 °F - 73.0 °F 100% 30.02 in 7.0 mi Calm Calm - N/A   Clear
7:53 AM 75.0 °F - 73.0 °F 94% 30.05 in 9.0 mi Calm Calm - N/A   Clear
8:53 AM 77.0 °F - 72.0 °F 84% 30.09 in 10.0 mi NNE 11.5 mph 19.6 mph N/A   Overcast
9:27 AM 72.0 °F - 69.1 °F 91% 30.12 in 7.0 mi NE 11.5 mph 20.7 mph 0.00 in Rain , Thunderstorm Light Rain
9:53 AM 71.1 °F - 70.0 °F 96% 30.10 in 10.0 mi ENE 6.9 mph - 0.00 in Thunderstorm Overcast
10:00 AM 71.1 °F - 70.0 °F 96% 30.11 in 10.0 mi Variable 3.5 mph - N/A   Overcast
10:53 AM 75.0 °F - 70.0 °F 84% 30.08 in 10.0 mi Calm Calm - N/A   Mostly Cloudy
11:53 AM 79.0 °F - 71.1 °F 77% 30.07 in 10.0 mi NW 5.8 mph - N/A   Partly Cloudy
12:53 PM 82.0 °F 85.5 °F 69.1 °F 65% 30.03 in 10.0 mi NE 4.6 mph - N/A   Clear
1:53 PM 87.1 °F 92.0 °F 70.0 °F 57% 30.01 in 10.0 mi Calm Calm - N/A   Clear
2:53 PM 87.1 °F 93.6 °F 72.0 °F 61% 29.99 in 10.0 mi West 3.5 mph - N/A   Clear
3:53 PM 89.1 °F 97.0 °F 73.0 °F 59% 29.99 in 10.0 mi West 8.1 mph - N/A   Clear
4:53 PM 84.0 °F 90.2 °F 73.0 °F 69% 29.99 in 10.0 mi NW 4.6 mph - N/A   Clear
5:53 PM 84.0 °F 90.2 °F 73.0 °F 69% 29.97 in 10.0 mi NNE 6.9 mph - N/A   Clear
6:53 PM 81.0 °F 85.2 °F 72.0 °F 74% 29.95 in 10.0 mi NE 4.6 mph - N/A   Clear
7:53 PM 78.1 °F - 72.0 °F 81% 29.96 in 10.0 mi Calm Calm - N/A   Clear
8:53 PM 75.0 °F - 73.0 °F 94% 29.98 in 10.0 mi Calm Calm - N/A   Clear
9:53 PM 73.0 °F - 73.0 °F 100% 30.01 in 10.0 mi Calm Calm - N/A   Clear
10:53 PM 73.0 °F - 72.0 °F 96% 30.04 in 10.0 mi Calm Calm - N/A   Clear
11:53 PM 73.0 °F - 71.1 °F 93% 30.03 in 10.0 mi East 4.6 mph - N/A   Clear